H1 CPF 2 NER 2021 3 31 9 090 01 glonass139 H2 1808601 9139 43687 2021 3 31 0 0 0 2021 4 3 23 45 0 900 1 1 0 0 0 1 H9 10 0 59304 0.00000 0 -3127017.398 16866421.439 18891773.894 10 0 59304 900.00000 0 -4016376.595 14604398.722 20537499.098 10 0 59304 1800.00000 0 -5148128.694 12254391.737 21784861.864 10 0 59304 2700.00000 0 -6512353.455 9883176.507 22609727.883 10 0 59304 3600.00000 0 -8086959.471 7555725.551 22996146.338 10 0 59304 4500.00000 0 -9838419.388 5332678.933 22936653.347 10 0 59304 5400.00000 0 -11722996.216 3268010.605 22432413.336 10 0 59304 6300.00000 0 -13688410.757 1406985.754 21493195.885 10 0 59304 7200.00000 0 -15675881.716 -215507.201 20137188.542 10 0 59304 8100.00000 0 -17622454.676 -1576181.913 18390648.912 10 0 59304 9000.00000 0 -19463523.982 -2664086.892 16287402.126 10 0 59304 9900.00000 0 -21135443.300 -3480816.162 13868192.718 10 0 59304 10800.00000 0 -22578116.640 -4040189.870 11179902.497 10 0 59304 11700.00000 0 -23737462.067 -4367418.896 8274648.706 10 0 59304 12600.00000 0 -24567645.119 -4497788.985 5208779.224 10 0 59304 13500.00000 0 -25032988.268 -4474920.188 2041783.694 10 0 59304 14400.00000 0 -25109475.887 -4348675.286 -1164858.655 10 0 59304 15300.00000 0 -24785790.908 -4172805.836 -4348872.133 10 0 59304 16200.00000 0 -24063838.826 -4002435.731 -7448395.353 10 0 59304 17100.00000 0 -22958736.130 -3891489.282 -10403185.827 10 0 59304 18000.00000 0 -21498262.809 -3890173.262 -13155794.397 10 0 59304 18900.00000 0 -19721801.100 -4042620.324 -15652686.274 10 0 59304 19800.00000 0 -17678804.294 -4384794.406 -17845286.398 10 0 59304 20700.00000 0 -15426859.280 -4942747.734 -19690928.364 10 0 59304 21600.00000 0 -13029423.511 -5731304.202 -21153688.232 10 0 59304 22500.00000 0 -10553330.674 -6753225.923 -22205086.839 10 0 59304 23400.00000 0 -8066169.130 -7998899.280 -22824646.839 10 0 59304 24300.00000 0 -5633642.250 -9446554.962 -23000293.632 10 0 59304 25200.00000 0 -3317020.512 -11063013.887 -22728592.364 10 0 59304 26100.00000 0 -1170791.331 -12804928.758 -22014816.304 10 0 59304 27000.00000 0 759395.853 -14620470.008 -20872845.189 10 0 59304 27900.00000 0 2438404.137 -16451386.167 -19324895.346 10 0 59304 28800.00000 0 3842834.151 -18235352.659 -17401086.698 10 0 59304 29700.00000 0 4961749.338 -19908510.775 -15138854.940 10 0 59304 30600.00000 0 5796872.328 -21408090.362 -12582220.219 10 0 59304 31500.00000 0 6362245.532 -22675005.968 -9780926.690 10 0 59304 32400.00000 0 6683371.735 -23656317.226 -6789469.857 10 0 59304 33300.00000 0 6795872.487 -24307449.809 -3666031.008 10 0 59304 34200.00000 0 6743722.444 -24594083.377 -471340.112 10 0 59304 35100.00000 0 6577135.747 -24493627.014 2732510.132 10 0 59304 36000.00000 0 6350195.210 -23996220.143 5883275.330 10 0 59304 36900.00000 0 6118325.736 -23105217.018 8919771.303 10 0 59304 37800.00000 0 5935719.795 -21837134.757 11783062.865 10 0 59304 38700.00000 0 5852824.508 -20221067.457 14417606.211 10 0 59304 39600.00000 0 5913996.918 -18297591.362 16772322.664 10 0 59304 40500.00000 0 6155426.633 -16117207.212 18801583.385 10 0 59304 41400.00000 0 6603413.458 -13738384.969 20466086.561 10 0 59304 42300.00000 0 7273072.500 -11225292.461 21733610.861 10 0 59304 43200.00000 0 8167521.167 -8645302.153 22579631.561 10 0 59304 44100.00000 0 9277582.353 -6066379.072 22987788.374 10 0 59304 45000.00000 0 10582016.523 -3554457.558 22950196.736 10 0 59304 45900.00000 0 12048273.542 -1170914.571 22467597.207 10 0 59304 46800.00000 0 13633733.625 1029756.892 21549340.427 10 0 59304 47700.00000 0 15287386.424 3001978.977 20213207.946 10 0 59304 48600.00000 0 16951879.220 4710741.772 18485072.110 10 0 59304 49500.00000 0 18565849.746 6132810.264 16398400.973 10 0 59304 50400.00000 0 20066447.051 7257436.259 13993617.075 10 0 59304 51300.00000 0 21391935.853 8086546.533 11317321.606 10 0 59304 52200.00000 0 22484275.876 8634400.157 8421398.067 10 0 59304 53100.00000 0 23291568.289 8926729.890 5362012.098 10 0 59304 54000.00000 0 23770266.549 8999404.260 2198526.251 10 0 59304 54900.00000 0 23887058.397 8896667.014 -1007649.610 10 0 59304 55800.00000 0 23620339.193 8669028.519 -4194249.973 10 0 59304 56700.00000 0 22961213.780 8370898.563 -7299364.153 10 0 59304 57600.00000 0 21913983.647 8058061.065 -10262641.756 10 0 59304 58500.00000 0 20496097.851 7785098.000 -13026469.183 10 0 59304 59400.00000 0 18737568.628 7602872.204 -15537093.839 10 0 59304 60300.00000 0 16679875.203 7556176.255 -17745673.747 10 0 59304 61200.00000 0 14374400.878 7681647.672 -19609231.710 10 0 59304 62100.00000 0 11880468.105 8006039.406 -21091495.206 10 0 59304 63000.00000 0 9263053.033 8544919.632 -22163605.540 10 0 59304 63900.00000 0 6590274.583 9301856.596 -22804682.292 10 0 59304 64800.00000 0 3930762.355 10268123.879 -23002232.127 10 0 59304 65700.00000 0 1351012.684 11422939.406 -22752393.942 10 0 59304 66600.00000 0 -1087157.271 12734229.007 -22060015.552 10 0 59304 67500.00000 0 -3328951.858 14159883.159 -20938560.319 10 0 59304 68400.00000 0 -5328638.597 15649454.737 -19409845.402 10 0 59304 69300.00000 0 -7051204.681 17146226.783 -17503616.567 10 0 59304 70200.00000 0 -8473560.058 18589563.640 -15256967.694 10 0 59304 71100.00000 0 -9585237.887 19917446.644 -12713616.155 10 0 59304 72000.00000 0 -10388564.219 21069087.532 -9923048.299 10 0 59304 72900.00000 0 -10898291.299 21987509.327 -6939551.828 10 0 59304 73800.00000 0 -11140711.443 22621985.714 -3821154.267 10 0 59304 74700.00000 0 -11152290.436 22930235.769 -628488.789 10 0 59304 75600.00000 0 -10977879.719 22880281.332 2576389.931 10 0 59304 76500.00000 0 -10668584.380 22451888.566 5731216.133 10 0 59304 77400.00000 0 -10279378.361 21637532.962 8774725.429 10 0 59304 78300.00000 0 -9866568.801 20442847.235 11647845.298 10 0 59304 79200.00000 0 -9485217.481 18886533.384 14294840.250 10 0 59304 80100.00000 0 -9186628.777 16999742.820 16664389.415 10 0 59304 81000.00000 0 -9016010.380 14824950.579 18710576.006 10 0 59304 81900.00000 0 -9010405.350 12414370.673 20393770.116 10 0 59304 82800.00000 0 -9196982.410 9827978.531 21681388.520 10 0 59304 83700.00000 0 -9591756.112 7131222.480 22548517.731 10 0 59304 84600.00000 0 -10198790.443 4392518.660 22978389.257 10 0 59304 85500.00000 0 -11009919.171 1680632.624 22962698.654 10 0 59305 0.00000 0 -12004994.785 -937944.954 22501762.932 10 0 59305 900.00000 0 -13152656.243 -3401520.898 21604513.488 10 0 59305 1800.00000 0 -14411583.243 -5655517.368 20288325.060 10 0 59305 2700.00000 0 -15732186.473 -7654489.414 18578683.302 10 0 59305 3600.00000 0 -17058662.960 -9363760.887 16508697.203 10 0 59305 4500.00000 0 -18331331.935 -10760610.715 14118464.820 10 0 59305 5400.00000 0 -19489153.933 -11834961.694 11454303.796 10 0 59305 6300.00000 0 -20472328.162 -12589543.682 8567860.630 10 0 59305 7200.00000 0 -21224859.378 -13039524.983 5515115.224 10 0 59305 8100.00000 0 -21696986.459 -13211627.929 2355299.413 10 0 59305 9000.00000 0 -21847370.176 -13142766.229 -850249.969 10 0 59305 9900.00000 0 -21644947.467 -12878261.787 -4039281.213 10 0 59305 10800.00000 0 -21070373.197 -12469716.559 -7149837.852 10 0 59305 11700.00000 0 -20116987.590 -11972629.684 -10121464.960 10 0 59305 12600.00000 0 -18791267.333 -11443861.006 -12896387.648 10 0 59305 13500.00000 0 -17112740.090 -10939048.714 -15420638.398 10 0 59305 14400.00000 0 -15113364.677 -10510090.852 -17645110.857 10 0 59305 15300.00000 0 -12836401.756 -10202797.753 -19526519.144 10 0 59305 16200.00000 0 -10334821.262 -10054815.248 -21028243.761 10 0 59305 17100.00000 0 -7669312.231 -10093906.984 -22121047.501 10 0 59305 18000.00000 0 -4905977.434 -10336669.012 -22783647.288 10 0 59305 18900.00000 0 -2113808.360 -10787731.493 -23003130.839 10 0 59305 19800.00000 0 637954.844 -11439481.783 -22775210.014 10 0 59305 20700.00000 0 3282468.847 -12272321.133 -22104305.847 10 0 59305 21600.00000 0 5757828.435 -13255444.705 -21003463.550 10 0 59305 22500.00000 0 8009398.264 -14348112.450 -19494098.949 10 0 59305 23400.00000 0 9991838.438 -15501357.622 -17605581.159 10 0 59305 24300.00000 0 11670740.144 -16660061.103 -15374659.468 10 0 59305 25200.00000 0 13023803.944 -17765304.107 -12844745.459 10 0 59305 26100.00000 0 14041512.432 -18756899.912 -10065064.463 10 0 59305 27000.00000 0 14727270.368 -19575997.549 -7089693.022 10 0 59305 27900.00000 0 15097007.872 -20167647.200 -3976501.455 10 0 59305 28800.00000 0 15178264.867 -20483218.607 -786022.691 10 0 59305 29700.00000 0 15008796.991 -20482570.013 2419729.981 10 0 59305 30600.00000 0 14634763.334 -20135875.789 5578472.625 10 0 59305 31500.00000 0 14108573.919 -19425035.372 8628863.573 10 0 59305 32400.00000 0 13486489.065 -18344604.052 11511695.543 10 0 59305 33300.00000 0 12826072.937 -16902206.291 14171043.542 10 0 59305 34200.00000 0 12183609.373 -15118414.198 16555346.248 10 0 59305 35100.00000 0 11611589.286 -13026096.172 18618400.216 10 0 59305 36000.00000 0 11156375.452 -10669262.739 20320248.280 10 0 59305 36900.00000 0 10856142.720 -8101457.534 21627945.692 10 0 59305 37800.00000 0 10739179.799 -5383759.918 22516190.142 10 0 59305 38700.00000 0 10822623.417 -2582481.552 22967804.465 10 0 59305 39600.00000 0 11111677.553 233348.286 22974063.495 10 0 59305 40500.00000 0 11599350.147 2994605.484 22534859.475 10 0 59305 41400.00000 0 12266718.273 5634694.564 21658703.179 10 0 59305 42300.00000 0 13083710.812 8092065.316 20362560.776 10 0 59305 43200.00000 0 14010376.273 10312519.663 18671529.353 10 0 59305 44100.00000 0 14998583.209 12251214.266 16618356.766 10 0 59305 45000.00000 0 15994082.639 13874276.728 14242814.398 10 0 59305 45900.00000 0 16938846.610 15159969.108 11590934.039 10 0 59305 46800.00000 0 17773585.281 16099351.034 8714122.785 10 0 59305 47700.00000 0 18440337.064 16696415.219 5668172.332 10 0 59305 48600.00000 0 18885022.936 16967690.232 2512181.282 10 0 59305 49500.00000 0 19059857.124 16941327.526 -692589.071 10 0 59305 50400.00000 0 18925512.018 16655711.374 -3883903.273 10 0 59305 51300.00000 0 18452945.179 16157650.561 -6999761.410 10 0 59305 52200.00000 0 17624810.318 15500228.359 -9979606.173 10 0 59305 53100.00000 0 16436391.435 14740401.844 -12765503.306 10 0 59305 54000.00000 0 14896019.388 13936452.326 -15303272.043 10 0 59305 54900.00000 0 13024951.805 13145394.976 -17543543.078 10 0 59305 55800.00000 0 10856720.017 12420457.505 -19442723.048 10 0 59305 56700.00000 0 8435968.970 11808734.768 -20963846.499 10 0 59305 57600.00000 0 5816837.470 11349118.736 -22077298.581 10 0 59305 58500.00000 0 3060945.422 11070591.519 -22761394.294 10 0 59305 59400.00000 0 235071.208 10990953.781 -23002802.991 10 0 59305 60300.00000 0 -2591384.794 11116042.410 -22796809.883 10 0 59305 61200.00000 0 -5349045.380 11439470.679 -22147409.366 10 0 59305 62100.00000 0 -7971200.792 11942901.992 -21067228.319 10 0 59305 63000.00000 0 -10396342.525 12596845.802 -19577280.687 10 0 59305 63900.00000 0 -12570481.481 13361942.166 -17706558.002 10 0 59305 64800.00000 0 -14449154.457 14190680.682 -15491463.651 10 0 59305 65700.00000 0 -15999035.889 15029481.115 -12975101.780 10 0 59305 66600.00000 0 -17199088.235 15821047.559 -10206434.781 10 0 59305 67500.00000 0 -18041203.914 16506896.292 -7239325.893 10 0 59305 68400.00000 0 -18530313.064 17029950.047 -4131485.920 10 0 59305 69300.00000 0 -18683953.953 17337088.471 -943345.131 10 0 59305 70200.00000 0 -18531325.603 17381546.485 2263127.085 10 0 59305 71100.00000 0 -18111864.087 17125058.683 5425631.186 10 0 59305 72000.00000 0 -17473403.914 16539658.793 8482750.849 10 0 59305 72900.00000 0 -16670003.418 15609057.992 11375146.681 10 0 59305 73800.00000 0 -15759526.905 14329543.683 14046706.846 10 0 59305 74700.00000 0 -14801086.232 12710360.782 16445632.174 10 0 59305 75600.00000 0 -13852450.044 10773559.250 18525435.077 10 0 59305 76500.00000 0 -12967529.731 8553313.932 20245833.490 10 0 59305 77400.00000 0 -12194047.546 6094744.770 21573523.287 10 0 59305 78300.00000 0 -11571484.298 3452285.973 22482815.215 10 0 59305 79200.00000 0 -11129392.027 687671.200 22956124.978 10 0 59305 80100.00000 0 -10886141.676 -2132382.414 22984307.858 10 0 59305 81000.00000 0 -10848157.542 -4938696.481 22566832.097 10 0 59305 81900.00000 0 -11009670.048 -7662256.538 21711788.083 10 0 59305 82800.00000 0 -11352996.904 -10236832.630 20435733.233 10 0 59305 83700.00000 0 -11849340.811 -12601487.981 18763375.336 10 0 59305 84600.00000 0 -12460070.479 -14702872.964 16727099.901 10 0 59305 85500.00000 0 -13138431.558 -16497210.094 14366349.930 10 0 59306 0.00000 0 -13831616.133 -17951888.436 11726869.294 10 0 59306 900.00000 0 -14483104.146 -19046601.562 8859823.047 10 0 59306 1800.00000 0 -15035178.876 -19773982.573 5820811.924 10 0 59306 2700.00000 0 -15431510.005 -20139708.852 2668798.235 10 0 59306 3600.00000 0 -15619696.029 -20162073.810 -535035.494 10 0 59306 4500.00000 0 -15553657.684 -19871042.632 -3728473.420 10 0 59306 5400.00000 0 -15195780.933 -19306832.436 -6849475.601 10 0 59306 6300.00000 0 -14518717.892 -18518076.640 -9837385.796 10 0 59306 7200.00000 0 -13506768.474 -17559651.092 -12634113.795 10 0 59306 8100.00000 0 -12156783.027 -16490253.926 -15185268.879 10 0 59306 9000.00000 0 -10478546.338 -15369841.481 -17441221.893 10 0 59306 9900.00000 0 -8494625.311 -14257028.757 -19358074.788 10 0 59306 10800.00000 0 -6239685.114 -13206564.317 -20898518.532 10 0 59306 11700.00000 0 -3759300.977 -12266986.322 -22032562.522 10 0 59306 12600.00000 0 -1108314.096 -11478558.678 -22738121.149 10 0 59306 13500.00000 0 1651200.850 -10871574.318 -23001446.139 10 0 59306 14400.00000 0 4452272.730 -10465097.104 -22817396.198 10 0 59306 15300.00000 0 7225578.874 -10266195.271 -22189538.678 10 0 59306 16200.00000 0 9902092.452 -10269698.546 -21130081.215 10 0 59306 17100.00000 0 12415722.632 -10458488.936 -19659634.511 10 0 59306 18000.00000 0 14705837.826 -10804312.663 -17806810.715 10 0 59306 18900.00000 0 16719567.303 -11269078.609 -15607665.104 10 0 59306 19800.00000 0 18413785.590 -11806588.010 -13104991.780 10 0 59306 20700.00000 0 19756697.239 -12364621.830 -10347487.201 10 0 59306 21600.00000 0 20728956.440 -12887296.977 -7388797.975 10 0 59306 22500.00000 0 21324275.450 -13317591.059 -4286471.781 10 0 59306 23400.00000 0 21549497.392 -13599928.204 -1100832.447 10 0 59306 24300.00000 0 21424131.655 -13682715.849 2106198.360 10 0 59306 25200.00000 0 20979372.801 -13520724.590 5272309.236 10 0 59306 26100.00000 0 20256645.678 -13077209.908 8336012.712 10 0 59306 27000.00000 0 19305739.318 -12325685.705 11237840.461 10 0 59306 27900.00000 0 18182609.352 -11251274.438 13921496.542 10 0 59306 28800.00000 0 16946942.319 -9851576.675 16334946.212 10 0 59306 29700.00000 0 15659584.869 -8137023.211 18431419.508 10 0 59306 30600.00000 0 14379946.075 -6130694.526 20170310.744 10 0 59306 31500.00000 0 13163481.712 -3867614.757 21517957.230 10 0 59306 32400.00000 0 12059365.515 -1393548.989 22448283.126 10 0 59306 33300.00000 0 11108444.176 1236646.886 22943296.953 10 0 59306 34200.00000 0 10341560.819 3961055.977 22993433.986 10 0 59306 35100.00000 0 9778316.119 6713026.813 22597737.651 10 0 59306 36000.00000 0 9426318.008 9423701.101 21763876.797 10 0 59306 36900.00000 0 9280950.661 12024639.261 20507998.626 10 0 59306 37800.00000 0 9325671.885 14450436.195 18854419.894 10 0 59306 38700.00000 0 9532826.229 16641219.999 16835161.782 10 0 59306 39600.00000 0 9864939.661 18544930.803 14489336.724 10 0 59306 40500.00000 0 10276441.597 20119285.867 11862398.170 10 0 59306 41400.00000 0 10715742.102 21333349.741 9005266.844 10 0 59306 42300.00000 0 11127577.058 22168644.260 5973349.726 10 0 59306 43200.00000 0 11455522.526 22619752.289 2825470.083 10 0 59306 44100.00000 0 11644572.167 22694389.956 -377271.130 10 0 59306 45000.00000 0 11643668.530 22412944.321 -3572680.439 10 0 59306 45900.00000 0 11408080.662 21807495.877 -6698680.544 10 0 59306 46800.00000 0 10901526.658 20920366.953 -9694518.738 10 0 59306 47700.00000 0 10097950.306 19802257.137 -12501951.099 10 0 59306 48600.00000 0 8982875.480 18510044.318 -15066378.927 10 0 59306 49500.00000 0 7554279.526 17104344.103 -17337914.899 10 0 59306 50400.00000 0 5822947.285 15646930.546 -19272357.704 10 0 59306 51300.00000 0 3812289.172 14198126.989 -20832055.923 10 0 59306 52200.00000 0 1557629.306 12814276.919 -21986644.175 10 0 59306 53100.00000 0 -895007.929 11545401.344 -22713637.014 10 0 59306 54000.00000 0 -3490563.495 10433141.160 -22998869.089 10 0 59306 54900.00000 0 -6166993.083 9509070.851 -22836772.895 10 0 59306 55800.00000 0 -8857615.626 8793454.186 -22230488.726 10 0 59306 56700.00000 0 -11493663.781 8294493.836 -21191804.607 10 0 59306 57600.00000 0 -14006930.665 8008105.962 -19740927.221 10 0 59306 58500.00000 0 -16332402.829 7918228.698 -17906088.179 10 0 59306 59400.00000 0 -18410770.027 7997650.840 -15722993.131 10 0 59306 60300.00000 0 -20190707.343 8209325.016 -13234124.321 10 0 59306 61200.00000 0 -21630834.545 8508109.120 -10487910.234 10 0 59306 62100.00000 0 -22701271.196 8842861.548 -7537778.656 10 0 59306 63000.00000 0 -23384722.948 9158800.735 -4441111.870 10 0 59306 63900.00000 0 -23677054.187 9400028.287 -1258124.931 10 0 59306 64800.00000 0 -23587323.972 9512108.040 1949310.588 10 0 59306 65700.00000 0 -23137284.872 9444591.097 5118873.814 10 0 59306 66600.00000 0 -22360366.969 9153379.337 8189008.561 10 0 59306 67500.00000 0 -21300190.989 8602826.869 11100120.023 10 0 59306 68400.00000 0 -20008674.212 7767490.212 13795730.612 10 0 59306 69300.00000 0 -18543809.707 6633453.030 16223572.427 10 0 59306 70200.00000 0 -16967212.815 5199169.291 18336595.461 10 0 59306 71100.00000 0 -15341538.104 3475789.003 20093872.584 10 0 59306 72000.00000 0 -13727875.016 1486952.481 21461384.510 10 0 59306 72900.00000 0 -12183230.780 -731938.924 22412670.523 10 0 59306 73800.00000 0 -10758205.092 -3134946.002 22929333.369 10 0 59306 74700.00000 0 -9494952.799 -5667258.722 23001389.407 10 0 59306 75600.00000 0 -8425518.537 -8267238.976 22627457.982 10 0 59306 76500.00000 0 -7570611.723 -10868755.470 21814786.784 10 0 59306 77400.00000 0 -6938872.058 -13403715.053 20579112.807 10 0 59306 78300.00000 0 -6526655.314 -15804686.777 18944361.402 10 0 59306 79200.00000 0 -6318347.711 -18007510.959 16942188.654 10 0 59306 80100.00000 0 -6287195.291 -19953785.788 14611375.281 10 0 59306 81000.00000 0 -6396613.247 -21593128.915 11997082.843 10 0 59306 81900.00000 0 -6601920.148 -22885120.365 9149985.751 10 0 59306 82800.00000 0 -6852424.093 -23800845.988 6125295.123 10 0 59306 83700.00000 0 -7093772.867 -24323977.021 2981692.744 10 0 59306 84600.00000 0 -7270468.825 -24451340.499 -219804.667 10 0 59306 85500.00000 0 -7328442.021 -24192956.330 -3417028.878 10 0 59307 0.00000 0 -7217572.320 -23571539.262 -6547868.203 10 0 59307 900.00000 0 -6894052.713 -22621486.202 -9551476.795 10 0 59307 1800.00000 0 -6322494.085 -21387391.741 -12369460.245 10 0 59307 2700.00000 0 -5477679.183 -19922153.461 -14947015.181 10 0 59307 3600.00000 0 -4345892.457 -18284747.309 -17233999.366 10 0 59307 4500.00000 0 -2925766.640 -16537766.238 -19185911.303 10 0 59307 5400.00000 0 -1228609.443 -14744825.749 -20764759.975 10 0 59307 6300.00000 0 721805.272 -12967945.321 -21939807.618 10 0 59307 7200.00000 0 2889974.526 -11265015.688 -22688170.894 10 0 59307 8100.00000 0 5229902.110 -9687458.165 -22995268.795 10 0 59307 9000.00000 0 7686782.934 -8278173.952 -22855108.507 10 0 59307 9900.00000 0 10199066.441 -7069869.151 -22270403.651 10 0 59307 10800.00000 0 12700813.855 -6083825.225 -21252522.525 10 0 59307 11700.00000 0 15124251.539 -5329165.842 -19821267.210 10 0 59307 12600.00000 0 17402414.240 -4802650.166 -18004487.724 10 0 59307 13500.00000 0 19471768.224 -4489000.317 -15837538.550 10 0 59307 14400.00000 0 21274704.875 -4361748.223 -13362588.056 10 0 59307 15300.00000 0 22761800.601 -4384565.058 -10627794.246 10 0 59307 16200.00000 0 23893748.657 -4513016.041 -7686363.124 10 0 59307 17100.00000 0 24642882.233 -4696665.247 -4595508.212 10 0 59307 18000.00000 0 24994225.325 -4881440.332 -1415332.135 10 0 59307 18900.00000 0 24946027.921 -5012156.007 1792347.445 10 0 59307 19800.00000 0 24509763.810 -5035088.454 4965204.030 10 0 59307 20700.00000 0 23709592.029 -4900490.925 8041616.438 10 0 59307 21600.00000 0 22581305.622 -4564943.365 10961866.842 10 0 59307 22500.00000 0 21170812.825 -3993436.217 13669299.124 10 0 59307 23400.00000 0 19532215.367 -3161100.016 16111414.939 10 0 59307 24300.00000 0 17725565.124 -2054507.528 18240886.514 10 0 59307 25200.00000 0 15814393.495 -672493.294 20016467.122 10 0 59307 26100.00000 0 13863116.916 973544.202 21403782.302 10 0 59307 27000.00000 0 11934426.632 2859870.917 22375987.474 10 0 59307 27900.00000 0 10086770.970 4951167.371 22914280.234 10 0 59307 28800.00000 0 8372034.230 7201770.008 23008258.240 10 0 59307 29700.00000 0 6833507.782 9557353.172 22656116.587 10 0 59307 30600.00000 0 5504236.615 11956982.945 21864681.233 10 0 59307 31500.00000 0 4405809.094 14335458.668 20649278.005 10 0 59307 32400.00000 0 3547639.191 16625846.154 19033439.507 10 0 59307 33300.00000 0 2926770.183 18762098.518 17048455.049 10 0 59307 34200.00000 0 2528207.253 20681656.612 14732771.633 10 0 59307 35100.00000 0 2325764.509 22327921.618 12131256.657 10 0 59307 36000.00000 0 2283390.484 23652497.330 9294335.693 10 0 59307 36900.00000 0 2356916.192 24617108.682 6277021.263 10 0 59307 37800.00000 0 2496151.973 25195116.368 3137850.772 10 0 59307 38700.00000 0 2647244.456 25372563.877 -62246.299 10 0 59307 39600.00000 0 2755193.891 25148712.614 -3261130.008 10 0 59307 40500.00000 0 2766424.967 24536042.190 -6396657.406 10 0 59307 41400.00000 0 2631301.730 23559715.285 -9407892.126 10 0 59307 42300.00000 0 2306479.406 22256529.132 -12236292.049 10 0 59307 43200.00000 0 1756992.561 20673397.235 -14826851.552 10 0 59307 44100.00000 0 957990.072 18865424.805 -17129175.606 10 0 59307 45000.00000 0 -103957.739 16893658.545 -19098464.363 10 0 59307 45900.00000 0 -1430036.448 14822605.107 -20696388.762 10 0 59307 46800.00000 0 -3008885.591 12717622.155 -21891839.935 10 0 59307 47700.00000 0 -4816831.641 10642291.374 -22661537.653 10 0 59307 48600.00000 0 -6818647.603 8655883.245 -22990485.953 10 0 59307 49500.00000 0 -8968808.758 6811019.496 -22872267.090 10 0 59307 50400.00000 0 -11213193.085 5151630.727 -22309168.008 10 0 59307 51300.00000 0 -13491156.196 3711294.150 -21312136.861 10 0 59307 52200.00000 0 -15737894.791 2512020.343 -19900570.280 10 0 59307 53100.00000 0 -17887000.243 1563539.043 -18101935.403 10 0 59307 54000.00000 0 -19873095.895 863112.860 -15951233.897 10 0 59307 54900.00000 0 -21634447.877 395885.574 -13490318.270 10 0 59307 55800.00000 0 -23115440.114 135749.104 -10767073.845 10 0 59307 56700.00000 0 -24268809.886 46691.222 -7834482.470 10 0 59307 57600.00000 0 -25057550.181 84565.780 -4749586.455 10 0 59307 58500.00000 0 -25456399.151 199209.295 -1572373.482 10 0 59307 59400.00000 0 -25452854.372 336813.092 1635395.231 10 0 59307 60300.00000 0 -25047669.787 442449.442 4811390.110 10 0 59307 61200.00000 0 -24254815.024 462643.795 7893927.534 10 0 59307 62100.00000 0 -23100899.561 347883.422 10823169.203 10 0 59307 63000.00000 0 -21624086.670 54955.736 13542282.972 10 0 59307 63900.00000 0 -19872543.459 -450982.910 15998542.453 10 0 59307 64800.00000 0 -17902492.575 -1194695.582 18144344.359 10 0 59307 65700.00000 0 -15775947.423 -2189582.628 19938124.403 10 0 59307 66600.00000 0 -13558225.699 -3436883.181 21345154.716 10 0 59307 67500.00000 0 -11315344.712 -4925394.183 22338208.321 10 0 59307 68400.00000 0 -9111406.455 -6631719.194 22898078.789 10 0 59307 69300.00000 0 -7006080.443 -8521037.249 23013945.890 10 0 59307 70200.00000 0 -5052287.932 -10548360.572 22683580.952 10 0 59307 71100.00000 0 -3294182.482 -12660229.805 21913388.387 10 0 59307 72000.00000 0 -1765509.639 -14796777.294 20718282.749 10 0 59307 72900.00000 0 -488412.650 -16894073.767 19121403.498 10 0 59307 73800.00000 0 527267.225 -18886661.933 17153672.482 10 0 59307 74700.00000 0 1284167.563 -20710172.464 14853201.989 10 0 59307 75600.00000 0 1797052.268 -22303914.171 12264563.950 10 0 59307 76500.00000 0 2091945.080 -23613330.876 9437933.485 10 0 59307 77400.00000 0 2204785.894 -24592222.511 6428122.628 10 0 59307 78300.00000 0 2179666.765 -25204637.530 3293522.237 10 0 59307 79200.00000 0 2066722.214 -25426356.992 94972.164 10 0 59307 80100.00000 0 1919763.146 -25245907.513 -3105418.533 10 0 59307 81000.00000 0 1793754.784 -24665059.886 -6245478.357 10 0 59307 81900.00000 0 1742245.797 -23698791.617 -9264183.465 10 0 59307 82800.00000 0 1814858.098 -22374714.187 -12102847.014 10 0 59307 83700.00000 0 2054944.371 -20731988.386 -14706264.215 10 0 59307 84600.00000 0 2497513.504 -18819772.647 -17023790.322 10 0 59307 85500.00000 0 3167512.727 -16695269.019 -19010330.089 99